Weather History for Oakes, ND

Change the Weather History Date:

Wednesday, October 10, 2012

  Actual Average (KABR) Record (KABR)
Temperature  
Mean Temperature 44 °F 48 °F  
Max Temperature 59 °F 61 °F 90 °F (1910)
Min Temperature 28 °F 35 °F 10 °F (1919)
Degree Days  
Heating Degree Days 22 17  
Month to date heating degree days 152  
Since 1 July heating degree days 426  
Cooling Degree Days 0 0  
Month to date cooling degree days 0  
Year to date cooling degree days 523  
Moisture  
Dew Point 29 °F    
Average Humidity 71    
Maximum Humidity 100    
Minimum Humidity 31    
Precipitation  
Precipitation 0.00 in 0.07 in 1.95 in (1949)
Month to date precipitation 0.74  
Year to date precipitation 19.22  
Snow  
Snow 0.00 in - - ()
Month to date snowfall  
Since 1 July snowfall  
Snow Depth -    
Sea Level Pressure  
Sea Level Pressure 29.96 in    
Wind  
Wind Speed 8 mph (SW)    
Max Wind Speed 20 mph    
Max Gust Speed 31 mph    
Visibility 10 miles    
Events Rain    
T = Trace of Precipitation, MM = Missing Value Source: NWS Daily Summary

Daily Weather History Graph

Daily Weather History Graph

Search for Another Location

Airport:

Trip Planner

Search our weather history database for the weather conditions in past years. The results will help you decide how hot, cold, wet, or windy it might be!

Date:

Astronomy

Oct. 10, 2012 Rise Set
Actual Time 7:43 AM CDT 6:54 PM CDT
Civil Twilight 7:13 AM CDT 7:24 PM CDT
Nautical Twilight 6:38 AM CDT 7:58 PM CDT
Astronomical Twilight 6:03 AM CDT 8:33 PM CDT
Moon 2:04 AM CDT (10/10) 4:12 PM CDT (10/10)
Length of Visible Light 12h 10m
Length of Day
11h 10m
Waning Crescent, 27% of the Moon is Illuminated
Oct 10
Waning Crescent
Oct 15
New
Oct 21
First Quarter
Oct 29
Full
Nov 6
Last Quarter

Hourly Weather History & Observations

Time (CDT) Temp. Windchill Dew Point Humidity Pressure Visibility Wind Dir Wind Speed Gust Speed Precip Events Conditions
12:15 AM 30.2 °F 23.4 °F 30.2 °F 100% 30.06 in 10.0 mi West 6.9 mph - N/A   Clear
12:35 AM 28.4 °F 23.3 °F 28.4 °F 100% 30.05 in 10.0 mi West 4.6 mph - N/A   Scattered Clouds
12:55 AM 30.2 °F 23.4 °F 30.2 °F 100% 30.05 in 10.0 mi West 6.9 mph - N/A   Mostly Cloudy
1:15 AM 30.2 °F 23.4 °F 30.2 °F 100% 30.06 in 10.0 mi WSW 6.9 mph - N/A   Mostly Cloudy
1:35 AM 30.2 °F 23.4 °F 30.2 °F 100% 30.06 in 10.0 mi West 6.9 mph - N/A   Unknown
1:55 AM 32.0 °F 24.8 °F 32.0 °F 100% 30.06 in 10.0 mi West 8.1 mph - N/A   Unknown
2:15 AM 32.0 °F 25.6 °F 32.0 °F 100% 30.06 in 10.0 mi West 6.9 mph - N/A   Unknown
2:35 AM 32.0 °F 27.5 °F 30.2 °F 93% 30.05 in 10.0 mi West 4.6 mph - N/A   Overcast
2:55 AM 32.0 °F 26.4 °F 30.2 °F 93% 30.05 in 10.0 mi West 5.8 mph - N/A   Overcast
3:15 AM 32.0 °F 26.4 °F 30.2 °F 93% 30.05 in 10.0 mi West 5.8 mph - N/A   Overcast
3:35 AM 32.0 °F 26.4 °F 30.2 °F 93% 30.04 in 10.0 mi WSW 5.8 mph - N/A   Mostly Cloudy
3:55 AM 32.0 °F 25.6 °F 30.2 °F 93% 30.04 in 10.0 mi SW 6.9 mph - N/A   Overcast
4:15 AM 32.0 °F 25.6 °F 32.0 °F 100% 30.04 in 10.0 mi WSW 6.9 mph - N/A   Mostly Cloudy
4:35 AM 32.0 °F 28.7 °F 30.2 °F 93% 30.04 in 10.0 mi WSW 3.5 mph - N/A   Clear
4:55 AM 32.0 °F 25.6 °F 28.4 °F 87% 30.05 in 10.0 mi WSW 6.9 mph - N/A   Clear
5:15 AM 30.2 °F 25.4 °F 28.4 °F 93% 30.05 in 10.0 mi WSW 4.6 mph - N/A   Clear
5:35 AM 30.2 °F 24.3 °F 28.4 °F 93% 30.05 in 10.0 mi WSW 5.8 mph - N/A   Clear
5:55 AM 28.4 °F 21.2 °F 28.4 °F 100% 30.05 in 10.0 mi WSW 6.9 mph - N/A   Unknown
6:15 AM 28.4 °F 23.3 °F 26.6 °F 93% 30.05 in 10.0 mi WSW 4.6 mph - N/A   Unknown
6:35 AM 28.4 °F 21.2 °F 26.6 °F 93% 30.04 in 10.0 mi WSW 6.9 mph - N/A   Unknown
6:55 AM 28.4 °F 22.2 °F 26.6 °F 93% 30.04 in 10.0 mi WSW 5.8 mph - N/A   Unknown
7:35 AM 28.4 °F 21.2 °F 26.6 °F 93% 30.05 in 10.0 mi WSW 6.9 mph - N/A   Unknown
7:55 AM 28.4 °F 21.2 °F 26.6 °F 93% 30.04 in 10.0 mi WSW 6.9 mph - N/A   Unknown
8:15 AM 28.4 °F 22.2 °F 26.6 °F 93% 30.04 in 10.0 mi WSW 5.8 mph - N/A   Unknown
8:35 AM 28.4 °F 22.2 °F 26.6 °F 93% 30.04 in 10.0 mi WSW 5.8 mph - N/A   Unknown
8:55 AM 32.0 °F 27.5 °F 26.6 °F 80% 30.04 in 10.0 mi WSW 4.6 mph - N/A   Unknown
9:15 AM 32.0 °F 27.5 °F 28.4 °F 87% 30.04 in 10.0 mi SW 4.6 mph - N/A   Unknown
9:35 AM 35.6 °F 29.9 °F 28.4 °F 75% 30.05 in 10.0 mi WSW 6.9 mph - N/A   Unknown
9:55 AM 35.6 °F 31.7 °F 28.4 °F 75% 30.04 in 10.0 mi WSW 4.6 mph - N/A   Unknown
10:15 AM 39.2 °F 34.2 °F 28.4 °F 65% 30.03 in 10.0 mi SW 6.9 mph - N/A   Mostly Cloudy
10:35 AM 39.2 °F 35.0 °F 28.4 °F 65% 30.04 in 10.0 mi SW 5.8 mph - N/A   Mostly Cloudy
10:55 AM 41.0 °F 37.1 °F 28.4 °F 61% 30.04 in 10.0 mi SW 5.8 mph - N/A   Mostly Cloudy
11:15 AM 42.8 °F 40.1 °F 28.4 °F 57% 30.02 in 10.0 mi South 4.6 mph - N/A   Mostly Cloudy
11:35 AM 44.6 °F 40.2 °F 26.6 °F 49% 30.02 in 10.0 mi South 8.1 mph - N/A   Mostly Cloudy
11:55 AM 44.6 °F 40.7 °F 28.4 °F 53% 30.02 in 10.0 mi South 6.9 mph - N/A   Overcast
12:15 PM 44.6 °F 40.7 °F 28.4 °F 53% 30.01 in 10.0 mi South 6.9 mph - N/A   Mostly Cloudy
12:35 PM 48.2 °F - 24.8 °F 40% 30.02 in 10.0 mi South 6.9 mph - N/A   Mostly Cloudy
12:55 PM 46.4 °F 41.5 °F 24.8 °F 43% 30.01 in 10.0 mi SSW 10.4 mph - N/A   Mostly Cloudy
1:15 PM 46.4 °F 42.9 °F 24.8 °F 43% 29.99 in 10.0 mi SW 6.9 mph - N/A   Scattered Clouds
1:35 PM 48.2 °F - 24.8 °F 40% 29.98 in 8.0 mi South 10.4 mph - N/A   Mostly Cloudy
1:55 PM 48.2 °F - 24.8 °F 40% 29.96 in 10.0 mi South 9.2 mph - N/A   Mostly Cloudy
2:15 PM 48.2 °F - 24.8 °F 40% 29.95 in 10.0 mi SSE 8.1 mph - N/A   Mostly Cloudy
2:35 PM 48.2 °F - 24.8 °F 40% 29.93 in 10.0 mi SSE 12.7 mph - N/A   Mostly Cloudy
2:55 PM 48.2 °F - 24.8 °F 40% 29.91 in 10.0 mi SSE 12.7 mph - N/A   Partly Cloudy
3:15 PM 50.0 °F - 26.6 °F 40% 29.89 in 10.0 mi SSE 12.7 mph 17.3 mph N/A   Scattered Clouds
3:35 PM 50.0 °F - 24.8 °F 37% 29.88 in 10.0 mi SSE 10.4 mph - N/A   Scattered Clouds
3:55 PM 53.6 °F - 26.6 °F 35% 29.86 in 10.0 mi SE 11.5 mph - N/A   Mostly Cloudy
4:15 PM 55.4 °F - 24.8 °F 31% 29.85 in 10.0 mi SSE 9.2 mph - N/A   Mostly Cloudy
4:35 PM 57.2 °F - 26.6 °F 31% 29.82 in 10.0 mi SSW 19.6 mph 24.2 mph N/A   Scattered Clouds
4:55 PM 59.0 °F - 28.4 °F 31% 29.81 in 10.0 mi South 16.1 mph - N/A   Scattered Clouds
5:15 PM 59.0 °F - 30.2 °F 34% 29.80 in 10.0 mi South 11.5 mph - N/A   Mostly Cloudy
5:35 PM 59.0 °F - 32.0 °F 36% 29.78 in 10.0 mi SSW 11.5 mph 19.6 mph N/A   Mostly Cloudy
5:55 PM 59.0 °F - 32.0 °F 36% 29.78 in 10.0 mi SSW 10.4 mph - N/A   Scattered Clouds
6:15 PM 59.0 °F - 32.0 °F 36% 29.77 in 10.0 mi South 11.5 mph - N/A   Mostly Cloudy
6:55 PM 59.0 °F - 32.0 °F 36% 29.75 in 10.0 mi SSW 9.2 mph - N/A   Overcast
7:15 PM 59.0 °F - 32.0 °F 36% 29.76 in 10.0 mi NNE 9.2 mph - N/A   Overcast
7:35 PM 51.8 °F - 32.0 °F 47% 29.78 in 10.0 mi NNE 12.7 mph - N/A   Mostly Cloudy
7:55 PM 46.4 °F 40.7 °F 30.2 °F 53% 29.80 in 10.0 mi NE 12.7 mph 19.6 mph N/A   Mostly Cloudy
8:15 PM 46.4 °F 40.7 °F 30.2 °F 53% 29.81 in 10.0 mi NE 12.7 mph 19.6 mph N/A   Mostly Cloudy
8:35 PM 44.6 °F 37.4 °F 32.0 °F 61% 29.82 in 10.0 mi NNE 16.1 mph - N/A   Mostly Cloudy
8:55 PM 42.8 °F 34.5 °F 32.0 °F 66% 29.81 in 10.0 mi NNE 18.4 mph - N/A   Mostly Cloudy
9:15 PM 41.0 °F 32.2 °F 32.0 °F 70% 29.81 in 10.0 mi NNE 18.4 mph 31.1 mph N/A   Overcast
9:35 PM 41.0 °F 31.9 °F 35.6 °F 81% 29.83 in 10.0 mi NNE 19.6 mph - N/A Rain Light Rain
9:55 PM 39.2 °F 30.5 °F 35.6 °F 87% 29.85 in 8.0 mi NNE 16.1 mph - N/A Rain Light Rain
10:15 PM 39.2 °F 30.2 °F 37.4 °F 93% 29.86 in 7.0 mi NNE 17.3 mph 20.7 mph N/A Rain Light Rain
10:35 PM 37.4 °F 27.8 °F 37.4 °F 100% 29.86 in 10.0 mi NNE 17.3 mph 23.0 mph N/A Rain Light Rain
10:55 PM 37.4 °F 28.2 °F 37.4 °F 100% 29.88 in 10.0 mi NNE 16.1 mph 21.9 mph N/A   Mostly Cloudy
11:15 PM 37.4 °F 28.2 °F 37.4 °F 100% 29.90 in 10.0 mi NNE 16.1 mph - N/A   Mostly Cloudy
11:35 PM 37.4 °F 27.8 °F 37.4 °F 100% 29.92 in 10.0 mi NNE 17.3 mph 20.7 mph N/A   Overcast
11:55 PM 37.4 °F 27.8 °F 35.6 °F 93% 29.93 in 10.0 mi North 17.3 mph - N/A   Mostly Cloudy